DLH2281 LFKB-EDDM

Flight info

Callsign DLH2281
Flight time N/A
Altitude 35000
Route MOULE L146 ELB DCT BETMU/N0431F360 DCT BORMI DCT NAXAV DCT BEXOR/N0433F380 DCT SOTOV/N0367F240 T101 BETOS BETOS1B
Aircraft A320/M-SDE2E3FGIJ1LORWXYZ/HB1

Departure

Time N/A
Airport Bastia-Poretta International airport (LFKB)

Arrival

Time 2026-05-04 22:21
Airport Munich Airport (EDDM)
Time Latitude Longitude Altitude Speed Heading
2026-05-04 21:48 45.67725 11.07427 35084 ft 442 kts
2026-05-04 21:49 45.70754 11.08204 35086 ft 442 kts
2026-05-04 21:49 45.76819 11.09760 35103 ft 443 kts
2026-05-04 21:50 45.82886 11.11319 35124 ft 443 kts
2026-05-04 21:50 45.88956 11.12868 35139 ft 444 kts
2026-05-04 21:51 45.95034 11.14426 35154 ft 444 kts
2026-05-04 21:51 46.01114 11.16002 35160 ft 444 kts
2026-05-04 21:52 46.07167 11.17733 35172 ft 445 kts 10°
2026-05-04 21:52 46.13166 11.19951 35168 ft 445 kts 12°
2026-05-04 21:53 46.19142 11.22274 35169 ft 445 kts 12°
2026-05-04 21:53 46.25135 11.24495 35179 ft 445 kts 11°
2026-05-04 21:54 46.31146 11.26657 35139 ft 445 kts 11°
2026-05-04 21:54 46.37154 11.28831 35140 ft 445 kts 11°
2026-05-04 21:55 46.43158 11.30999 35056 ft 444 kts
2026-05-04 21:55 46.49254 11.31526 35057 ft 437 kts 351°
2026-05-04 21:56 46.55197 11.30190 35058 ft 435 kts 348°
2026-05-04 21:56 46.61172 11.28796 35064 ft 435 kts 348°
2026-05-04 21:57 46.67155 11.27397 35069 ft 435 kts 348°
2026-05-04 21:57 46.73143 11.26000 35089 ft 436 kts 348°
2026-05-04 21:58 46.79128 11.24609 35098 ft 436 kts 348°
2026-05-04 21:58 46.85129 11.23211 34622 ft 436 kts 348°
2026-05-04 21:58 46.88113 11.22513 34166 ft 432 kts 348°
2026-05-04 21:59 46.91066 11.21822 33698 ft 428 kts 348°
2026-05-04 21:59 46.94003 11.21221 33189 ft 426 kts 353°
2026-05-04 21:59 46.96963 11.21221 32710 ft 426 kts
2026-05-04 21:59 46.99913 11.21434 32236 ft 423 kts
2026-05-04 22:00 47.02850 11.21636 31781 ft 422 kts
2026-05-04 22:00 47.05767 11.21830 31335 ft 419 kts
2026-05-04 22:00 47.08671 11.22020 30838 ft 416 kts
2026-05-04 22:00 47.11559 11.22209 30407 ft 414 kts
2026-05-04 22:01 47.13457 11.22333 30113 ft 412 kts
2026-05-04 22:01 47.17276 11.22585 29409 ft 409 kts
2026-05-04 22:01 47.20107 11.22773 28908 ft 406 kts
2026-05-04 22:01 47.22879 11.22961 28427 ft 403 kts
2026-05-04 22:02 47.25669 11.23152 27931 ft 400 kts
2026-05-04 22:02 47.28439 11.23340 27463 ft 397 kts
2026-05-04 22:02 47.31185 11.23528 26997 ft 394 kts
2026-05-04 22:02 47.33915 11.23715 26523 ft 391 kts
2026-05-04 22:03 47.35747 11.23840 26214 ft 389 kts
2026-05-04 22:03 47.38451 11.24023 25766 ft 387 kts
2026-05-04 22:03 47.41126 11.24203 25316 ft 384 kts
2026-05-04 22:03 47.43790 11.24386 24884 ft 382 kts
2026-05-04 22:04 47.46438 11.24567 24457 ft 379 kts
2026-05-04 22:04 47.49066 11.24744 24036 ft 377 kts
2026-05-04 22:04 47.51678 11.24923 23627 ft 374 kts
2026-05-04 22:04 47.54273 11.25106 23142 ft 372 kts
2026-05-04 22:05 47.56854 11.25228 22665 ft 370 kts 359°
2026-05-04 22:05 47.59388 11.25250 22179 ft 369 kts 359°
2026-05-04 22:05 47.61917 11.25804 21712 ft 369 kts 19°
2026-05-04 22:05 47.64221 11.27435 21254 ft 368 kts 28°
2026-05-04 22:06 47.66445 11.29295 20798 ft 366 kts 29°
2026-05-04 22:06 47.68651 11.31171 20348 ft 365 kts 29°
2026-05-04 22:06 47.70850 11.33053 19898 ft 364 kts 29°
2026-05-04 22:06 47.73040 11.34931 19476 ft 363 kts 29°
2026-05-04 22:07 47.75218 11.36802 19027 ft 362 kts 29°
2026-05-04 22:07 47.77340 11.38799 18604 ft 361 kts 39°
2026-05-04 22:07 47.79191 11.41326 18181 ft 360 kts 44°
2026-05-04 22:07 47.80982 11.43918 17699 ft 360 kts 44°
2026-05-04 22:08 47.82770 11.46519 17213 ft 359 kts 44°
2026-05-04 22:08 47.84555 11.49122 16746 ft 358 kts 44°
2026-05-04 22:08 47.86332 11.51713 16293 ft 358 kts 44°
2026-05-04 22:08 47.88113 11.54298 15831 ft 357 kts 44°
2026-05-04 22:09 47.89895 11.56875 15388 ft 357 kts 44°
2026-05-04 22:09 47.91676 11.59444 14950 ft 356 kts 44°
2026-05-04 22:09 47.93455 11.62005 14512 ft 355 kts 44°
2026-05-04 22:09 47.95228 11.64552 14084 ft 354 kts 44°
2026-05-04 22:10 47.97001 11.67094 13647 ft 353 kts 44°
2026-05-04 22:10 47.98747 11.69593 13156 ft 341 kts 44°
2026-05-04 22:10 48.00428 11.72003 12686 ft 329 kts 44°
2026-05-04 22:10 48.02051 11.74334 12222 ft 318 kts 44°
2026-05-04 22:11 48.03622 11.76596 11772 ft 312 kts 44°
2026-05-04 22:11 48.05189 11.78861 11323 ft 314 kts 44°
2026-05-04 22:11 48.06764 11.81142 10877 ft 316 kts 44°
2026-05-04 22:11 48.08342 11.83430 10444 ft 316 kts 44°
2026-05-04 22:12 48.09921 11.85728 10017 ft 317 kts 44°
2026-05-04 22:12 48.11480 11.88001 9570 ft 317 kts 44°
2026-05-04 22:12 48.13049 11.90293 9088 ft 305 kts 44°
2026-05-04 22:12 48.14614 11.92346 8627 ft 294 kts 36°
2026-05-04 22:13 48.16230 11.94070 8179 ft 285 kts 35°
2026-05-04 22:13 48.17832 11.95738 7718 ft 276 kts 34°
2026-05-04 22:13 48.19387 11.97353 7288 ft 269 kts 34°
2026-05-04 22:13 48.20899 11.98928 6910 ft 259 kts 34°
2026-05-04 22:14 48.22354 12.00443 6588 ft 253 kts 34°
2026-05-04 22:14 48.23802 12.01956 6246 ft 254 kts 35°
2026-05-04 22:14 48.25257 12.03472 5890 ft 255 kts 34°
2026-05-04 22:14 48.26713 12.04980 5538 ft 253 kts 34°
2026-05-04 22:15 48.28144 12.06459 5185 ft 246 kts 35°
2026-05-04 22:15 48.29528 12.07883 4988 ft 233 kts 34°
2026-05-04 22:15 48.30805 12.09194 4996 ft 213 kts 34°
2026-05-04 22:15 48.32047 12.10297 5006 ft 205 kts 27°
2026-05-04 22:16 48.33346 12.11222 4994 ft 207 kts 25°
2026-05-04 22:16 48.34709 12.11871 4979 ft 206 kts
2026-05-04 22:16 48.36106 12.11667 4980 ft 200 kts 340°
2026-05-04 22:16 48.37303 12.10686 4955 ft 195 kts 317°
2026-05-04 22:17 48.38142 12.09123 4856 ft 192 kts 294°
2026-05-04 22:17 48.38511 12.07226 4680 ft 189 kts 271°
2026-05-04 22:17 48.38427 12.05274 4465 ft 187 kts 261°
2026-05-04 22:17 48.38282 12.03336 4225 ft 187 kts 262°
2026-05-04 22:18 48.38137 12.01392 3984 ft 187 kts 262°
2026-05-04 22:18 48.37993 11.99456 3742 ft 185 kts 262°
2026-05-04 22:18 48.37849 11.97526 3501 ft 186 kts 263°
2026-05-04 22:18 48.37704 11.95595 3266 ft 186 kts 263°
2026-05-04 22:19 48.37564 11.93716 3026 ft 176 kts 263°
2026-05-04 22:19 48.37439 11.91990 2842 ft 159 kts 264°
2026-05-04 22:19 48.37327 11.90362 2626 ft 154 kts 264°
2026-05-04 22:19 48.37210 11.88766 2420 ft 152 kts 264°
2026-05-04 22:20 48.37100 11.87210 2213 ft 148 kts 264°
2026-05-04 22:20 48.36962 11.85705 2025 ft 144 kts 262°
2026-05-04 22:20 48.36847 11.84208 1804 ft 143 kts 264°
2026-05-04 22:20 48.36733 11.82732 1627 ft 140 kts 264°
2026-05-04 22:21 48.36623 11.81311 1503 ft 127 kts 263°
2026-05-04 22:21 48.36538 11.80155 1472 ft 89 kts 262°
2026-05-04 22:21 48.36485 11.79479 1485 ft 50 kts 263°
2026-05-04 22:21 48.36439 11.79026 1483 ft 32 kts 249°
2026-05-04 22:22 48.36322 11.78746 1474 ft 32 kts 232°
2026-05-04 22:22 48.36203 11.78507 1480 ft 23 kts 232°
2026-05-04 22:22 48.36141 11.78523 1482 ft 12 kts 85°
2026-05-04 22:22 48.36149 11.78639 1485 ft 12 kts 83°
2026-05-04 22:23 48.36163 11.78805 1475 ft 18 kts 84°
2026-05-04 22:23 48.36176 11.78981 1481 ft 16 kts 83°
2026-05-04 22:23 48.36188 11.79141 1485 ft 14 kts 83°
2026-05-04 22:23 48.36186 11.79277 1483 ft 12 kts 120°
2026-05-04 22:24 48.36114 11.79312 1478 ft 11 kts 174°
2026-05-04 22:24 48.36045 11.79324 1482 ft 10 kts 173°
2026-05-04 22:24 48.35972 11.79337 1480 ft 11 kts 173°
2026-05-04 22:24 48.35897 11.79375 1481 ft 12 kts 161°
2026-05-04 22:25 48.35818 11.79390 1470 ft 11 kts 173°
2026-05-04 22:25 48.35749 11.79402 1480 ft 9 kts 174°
2026-05-04 22:25 48.35691 11.79412 1483 ft 8 kts 173°
2026-05-04 22:25 48.35653 11.79387 1497 ft 6 kts 239°
2026-05-04 22:26 48.35648 11.79338 1481 ft 4 kts 264°
2026-05-04 22:26 48.35645 11.79302 1475 ft 3 kts 264°
2026-05-04 22:26 48.35644 11.79279 1475 ft 2 kts 263°
2026-05-04 22:26 48.35643 11.79273 1477 ft 0 kts 263°